Miscellaneous Local Product
Issued by NWS Hastings, NE

Home | Current Version | Previous Version | Text Only | Print | Product List | Glossary Off
Versions: 1 2 3 4 5 6 7 8 9 10 11 12 13 14 15 16 17 18 19 20 21 22 23 24 25 26 27 28 29 30 31 32 33 34 35 36 37 38 39 40 41 42 43 44 45 46 47 48 49 50

000
AXUS43 KGID 221202
MISGRI

GID CWA HOURLY WEATHER ROUNDUP
NATIONAL WEATHER SERVICE HASTINGS NE
700 AM CDT TUE AUG 22 2017

NOTE: "FAIR" INDICATES FEW OR NO CLOUDS BELOW 12,000 FEET WITH NO
SIGNIFICANT WEATHER AND/OR OBSTRUCTIONS TO VISIBILITY.

...SOUTH CENTRAL NEBRASKA...

CITY           SKY/WX    TMP DP  RH WIND       PRES   REMARKS
GRAND ISLAND   CLEAR     58  57  97 N5        30.18R
HASTINGS       CLEAR     62  58  86 N8        30.18R
KEARNEY        CLEAR     59  56  89 NE12      30.19R
ORD            CLEAR     54  50  86 NW5       30.18R
YORK           CLEAR     63  61  94 N7        30.15R
AURORA         CLEAR     60  59  97 N5        30.17R
LEXINGTON      CLEAR     58  53  83 NE6       30.21R
HOLDREGE       CLEAR     59  56  90 NE3       30.19R
HEBRON         MOCLDY    64  64  97 NE3       30.14R FOG

...NEBRASKA PANHANDLE...

CITY           SKY/WX    TMP DP  RH WIND       PRES   REMARKS
CHADRON        CLEAR     44  41  89 S3        30.25R
ALLIANCE       CLEAR     42  40  92 W6        30.28R
SCOTTSBLUFF    CLEAR     52  46  80 E5        30.28R
SIDNEY         CLEAR     46  44  93 CALM      30.30S

...WESTERN AND NORTH CENTRAL NEBRASKA...

CITY           SKY/WX    TMP DP  RH WIND       PRES   REMARKS
VALENTINE      CLEAR     49  44  83 NW5       30.23R
AINSWORTH      CLEAR     50  48  94 NW5       30.23R
ONEILL         CLEAR     53  51  94 NW5       30.19R
BROKEN BOW     CLEAR     54  51  90 N3        30.20R
IMPERIAL       CLEAR     54  52  93 N6        30.25R
NORTH PLATTE   CLEAR     51  50  96 CALM      30.23R
MCCOOK         CLEAR     60  59  96 NE12      30.19R

...EASTERN NEBRASKA...

CITY           SKY/WX    TMP DP  RH WIND       PRES   REMARKS
NORFOLK        CLEAR     56  54  93 NW3       30.14R
SO SIOUX CITY  CLEAR     57  56  96 NW6       30.11R
TEKAMAH        CLEAR     60  58  92 N6        30.11R
COLUMBUS       CLEAR     58  56  93 N3        30.16R
ALBION         CLEAR     56  54  94 N3        30.18R
OMAHA EPPLEY   CLOUDY    64  61  90 N8        30.10R
OFFUTT AFB     CLOUDY    65  63  95 NW6       30.10R
MILLARD        CLEAR     64  63  96 NW3       30.11R
LINCOLN        CLEAR     64  62  93 N6        30.13R
NEBRASKA CITY  FOG       64  64 100 NW6       30.10R VSB 3/4
BEATRICE       CLOUDY    65  64  98 N3        30.12R FOG
FALLS CITY     CLOUDY    64  63  96 NW5       30.08R

...NORTHERN KANSAS...

CITY           SKY/WX    TMP DP  RH WIND       PRES   REMARKS
GOODLAND       CLOUDY    61  61 100 N6        30.24R FOG
HILL CITY      CLEAR     65  63  93 N13       30.17R
NORTON         SUNNY     61  57  88 N10       30.18R
PHILLIPSBURG   MOCLDY    64  64 100 CALM      30.17R
SMITH CENTER   MOCLDY    63  61  94 NE6       30.15R
HAYS           PTCLDY    66  63  90 N17       30.14R
RUSSELL        CLOUDY    67  63  87 N16       30.10R
CONCORDIA      MOCLDY    65  65 100 NE10      30.12R
SALINA         CLOUDY    71  66  84 NE18      30.06R
TOPEKA         CLOUDY    68  68 100 NE5       30.07R



USA.gov is the U.S. government's official web portal to all federal, state and local government web resources and services.